Location: �clusier
(49.9361°N, 2.7869°E)
Time: 21:44:22
(UTC+00:00)

Cosmos 2016 Rocket - Pass Details

Date: 26 October 2021
Orbit: 946 x 1001 km, 83.0° (Epoch: 30 November)

Event Time Altitude Azimuth Distance (km) Brightness Sun altitude
Rises 04:42:25 0° 359° (N) 3,631 7.0 -17.6°
Reaches altitude 10° 04:45:51 10° 18° (NNE) 2,680 6.5 -17.1°
Maximum altitude 04:49:52 18° 59° (ENE) 2,158 6.6 -16.4°
Drops below altitude 10° 04:53:54 10° 101° (E) 2,676 7.6 -15.8°
Sets 04:57:18 0° 120° (ESE) 3,623 8.1 -15.2°
